Year,Month,Day,Hour,Minute,Value (Times are PST for temperature in C)
2024,01,13,00,00,-10.60
2024,01,13,00,01,-10.60
2024,01,13,00,02,-10.60
2024,01,13,00,03,-10.60
2024,01,13,00,04,-10.60
2024,01,13,00,05,-10.70
2024,01,13,00,06,-10.70
2024,01,13,00,07,-10.70
2024,01,13,00,08,-10.70
2024,01,13,00,09,-10.70
2024,01,13,00,10,-10.70
2024,01,13,00,11,-10.70
2024,01,13,00,12,-10.70
2024,01,13,00,13,-10.70
2024,01,13,00,14,-10.70
2024,01,13,00,15,-10.80
2024,01,13,00,16,-10.80
2024,01,13,00,17,-10.80
2024,01,13,00,18,-10.70
2024,01,13,00,19,-10.80
2024,01,13,00,20,-10.80
2024,01,13,00,21,-10.70
2024,01,13,00,22,-10.80
2024,01,13,00,23,-10.80
2024,01,13,00,24,-10.80
2024,01,13,00,25,-10.80
2024,01,13,00,26,-10.80
2024,01,13,00,27,-10.80
2024,01,13,00,28,-10.80
2024,01,13,00,29,-10.80
2024,01,13,00,30,-10.80
2024,01,13,00,31,-10.80
2024,01,13,00,32,-10.80
2024,01,13,00,33,-10.80
2024,01,13,00,34,-10.80
2024,01,13,00,35,-10.80
2024,01,13,00,36,-10.80
2024,01,13,00,37,-10.80
2024,01,13,00,38,-10.80
2024,01,13,00,39,-10.80
2024,01,13,00,40,-10.80
2024,01,13,00,41,-10.80
2024,01,13,00,42,-10.80
2024,01,13,00,43,-10.80
2024,01,13,00,44,-10.80
2024,01,13,00,45,-10.80
2024,01,13,00,46,-10.80
2024,01,13,00,47,-10.80
2024,01,13,00,48,-10.80
2024,01,13,00,49,-10.70
2024,01,13,00,50,-10.70
2024,01,13,00,51,-10.70
2024,01,13,00,52,-10.70
2024,01,13,00,53,-10.70
2024,01,13,00,54,-10.70
2024,01,13,00,55,-10.70
2024,01,13,00,56,-10.70
2024,01,13,00,57,-10.70
2024,01,13,00,58,-10.70
2024,01,13,00,59,-10.70
2024,01,13,01,00,-10.70
2024,01,13,01,01,-10.60
2024,01,13,01,02,-10.60
2024,01,13,01,03,-10.60
2024,01,13,01,04,-10.60
2024,01,13,01,05,-10.60
2024,01,13,01,06,-10.60
2024,01,13,01,07,-10.60
2024,01,13,01,08,-10.60
2024,01,13,01,09,-10.60
2024,01,13,01,10,-10.60
2024,01,13,01,11,-10.60
2024,01,13,01,12,-10.60
2024,01,13,01,13,-10.50
2024,01,13,01,14,-10.50
2024,01,13,01,15,-10.50
2024,01,13,01,16,-10.50
2024,01,13,01,17,-10.50
2024,01,13,01,18,-10.50
2024,01,13,01,19,-10.50
2024,01,13,01,20,-10.40
2024,01,13,01,21,-10.40
2024,01,13,01,22,-10.40
2024,01,13,01,23,-10.40
2024,01,13,01,24,-10.40
2024,01,13,01,25,-10.40
2024,01,13,01,26,-10.40
2024,01,13,01,27,-10.40
2024,01,13,01,28,-10.40
2024,01,13,01,29,-10.40
2024,01,13,01,30,-10.40
2024,01,13,01,31,-10.40
2024,01,13,01,32,-10.40
2024,01,13,01,33,-10.40
2024,01,13,01,34,-10.40
2024,01,13,01,35,-10.40
2024,01,13,01,36,-10.50
2024,01,13,01,37,-10.50
2024,01,13,01,38,-10.50
2024,01,13,01,39,-10.50
2024,01,13,01,40,-10.50
2024,01,13,01,41,-10.50
2024,01,13,01,42,-10.50
2024,01,13,01,43,-10.50
2024,01,13,01,44,-10.60
2024,01,13,01,45,-10.60
2024,01,13,01,46,-10.50
2024,01,13,01,47,-10.50
2024,01,13,01,48,-10.50
2024,01,13,01,49,-10.50
2024,01,13,01,50,-10.50
2024,01,13,01,51,-10.50
2024,01,13,01,52,-10.40
2024,01,13,01,53,-10.50
2024,01,13,01,54,-10.50
2024,01,13,01,55,-10.50
2024,01,13,01,56,-10.50
2024,01,13,01,57,-10.50
2024,01,13,01,58,-10.50
2024,01,13,01,59,-10.60
2024,01,13,02,00,-10.60
2024,01,13,02,01,-10.60
2024,01,13,02,02,-10.60
2024,01,13,02,03,-10.60
2024,01,13,02,04,-10.50
2024,01,13,02,05,-10.50
2024,01,13,02,06,-10.50
2024,01,13,02,07,-10.40
2024,01,13,02,08,-10.40
2024,01,13,02,09,-10.40
2024,01,13,02,10,-10.40
2024,01,13,02,11,-10.40
2024,01,13,02,12,-10.40
2024,01,13,02,13,-10.40
2024,01,13,02,14,-10.40
2024,01,13,02,15,-10.30
2024,01,13,02,16,-10.30
2024,01,13,02,17,-10.30
2024,01,13,02,18,-10.20
2024,01,13,02,19,-10.20
2024,01,13,02,20,-10.20
2024,01,13,02,21,-10.20
2024,01,13,02,22,-10.20
2024,01,13,02,23,-10.30
2024,01,13,02,24,-10.30
2024,01,13,02,25,-10.30
2024,01,13,02,26,-10.30
2024,01,13,02,27,-10.30
2024,01,13,02,28,-10.30
2024,01,13,02,29,-10.30
2024,01,13,02,30,-10.30
2024,01,13,02,31,-10.30
2024,01,13,02,32,-10.30
2024,01,13,02,33,-10.30
2024,01,13,02,34,-10.30
2024,01,13,02,35,-10.20
2024,01,13,02,36,-10.20
2024,01,13,02,37,-10.20
2024,01,13,02,38,-10.20
2024,01,13,02,39,-10.20
2024,01,13,02,40,-10.20
2024,01,13,02,41,-10.20
2024,01,13,02,42,-10.20
2024,01,13,02,43,-10.30
2024,01,13,02,44,-10.30
2024,01,13,02,45,-10.30
2024,01,13,02,46,-10.30
2024,01,13,02,47,-10.30
2024,01,13,02,48,-10.30
2024,01,13,02,49,-10.30
2024,01,13,02,50,-10.30
2024,01,13,02,51,-10.30
2024,01,13,02,52,-10.30
2024,01,13,02,53,-10.40
2024,01,13,02,54,-10.40
2024,01,13,02,55,-10.40
2024,01,13,02,56,-10.40
2024,01,13,02,57,-10.40
2024,01,13,02,58,-10.40
2024,01,13,02,59,-10.50
2024,01,13,03,00,-10.50
2024,01,13,03,01,-10.50
2024,01,13,03,02,-10.50
2024,01,13,03,03,-10.50
2024,01,13,03,04,-10.60
2024,01,13,03,05,-10.60
2024,01,13,03,06,-10.60
2024,01,13,03,07,-10.60
2024,01,13,03,08,-10.60
2024,01,13,03,09,-10.60
2024,01,13,03,10,-10.60
2024,01,13,03,11,-10.60
2024,01,13,03,12,-10.60
2024,01,13,03,13,-10.60
2024,01,13,03,14,-10.60
2024,01,13,03,15,-10.60
2024,01,13,03,16,-10.60
2024,01,13,03,17,-10.60
2024,01,13,03,18,-10.60
2024,01,13,03,19,-10.60
2024,01,13,03,20,-10.60
2024,01,13,03,21,-10.50
2024,01,13,03,22,-10.50
2024,01,13,03,23,-10.50
2024,01,13,03,24,-10.50
2024,01,13,03,25,-10.50
2024,01,13,03,26,-10.40
2024,01,13,03,27,-10.40
2024,01,13,03,28,-10.40
2024,01,13,03,29,-10.40
2024,01,13,03,30,-10.30
2024,01,13,03,31,-10.30
2024,01,13,03,32,-10.30
2024,01,13,03,33,-10.20
2024,01,13,03,34,-10.20
2024,01,13,03,35,-10.20
2024,01,13,03,36,-10.10
2024,01,13,03,37,-10.10
2024,01,13,03,38,-10.10
2024,01,13,03,39,-10.00
2024,01,13,03,40,-10.00
2024,01,13,03,41,-9.90
2024,01,13,03,42,-9.80
2024,01,13,03,43,-9.80
2024,01,13,03,44,-9.70
2024,01,13,03,45,-9.70
2024,01,13,03,46,-9.60
2024,01,13,03,47,-9.50
2024,01,13,03,48,-9.50
2024,01,13,03,49,-9.40
2024,01,13,03,50,-9.40
2024,01,13,03,51,-9.40
2024,01,13,03,52,-9.30
2024,01,13,03,53,-9.30
2024,01,13,03,54,-9.30
2024,01,13,03,55,-9.30
2024,01,13,03,56,-9.20
2024,01,13,03,57,-9.20
2024,01,13,03,58,-9.20
2024,01,13,03,59,-9.20
2024,01,13,04,00,-9.20
2024,01,13,04,01,-9.10
2024,01,13,04,02,-9.10
2024,01,13,04,03,-9.10
2024,01,13,04,04,-9.10
2024,01,13,04,05,-9.10
2024,01,13,04,06,-9.00
2024,01,13,04,07,-9.00
2024,01,13,04,08,-9.00
2024,01,13,04,09,-8.90
2024,01,13,04,10,-8.90
2024,01,13,04,11,-8.90
2024,01,13,04,12,-8.90
2024,01,13,04,13,-8.90
2024,01,13,04,14,-8.80
2024,01,13,04,15,-8.80
2024,01,13,04,16,-8.80
2024,01,13,04,17,-8.80
2024,01,13,04,18,-8.80
2024,01,13,04,19,-8.80
2024,01,13,04,20,-8.80
2024,01,13,04,21,-8.80
2024,01,13,04,22,-8.80
2024,01,13,04,23,-8.80
2024,01,13,04,24,-8.80
2024,01,13,04,25,-8.80
2024,01,13,04,26,-8.70
2024,01,13,04,27,-8.70
2024,01,13,04,28,-8.80
2024,01,13,04,29,-8.70
2024,01,13,04,30,-8.70
2024,01,13,04,31,-8.70
2024,01,13,04,32,-8.80
2024,01,13,04,33,-8.80
2024,01,13,04,34,-8.80
2024,01,13,04,35,-8.80
2024,01,13,04,36,-8.80
2024,01,13,04,37,-8.80
2024,01,13,04,38,-8.80
2024,01,13,04,39,-8.80
2024,01,13,04,40,-8.80
2024,01,13,04,41,-8.80
2024,01,13,04,42,-8.80
2024,01,13,04,43,-8.80
2024,01,13,04,44,-8.80
2024,01,13,04,45,-8.80
2024,01,13,04,46,-8.80
2024,01,13,04,47,-8.80
2024,01,13,04,48,-8.80
2024,01,13,04,49,-8.80
2024,01,13,04,50,-8.90
2024,01,13,04,51,-8.90
2024,01,13,04,52,-8.90
2024,01,13,04,53,-8.90
2024,01,13,04,54,-8.90
2024,01,13,04,55,-8.90
2024,01,13,04,56,-8.90
2024,01,13,04,57,-8.90
2024,01,13,04,58,-8.90
2024,01,13,04,59,-8.90
2024,01,13,05,00,-8.90
2024,01,13,05,01,-8.90
2024,01,13,05,02,-8.90
2024,01,13,05,03,-8.90
2024,01,13,05,04,-8.90
2024,01,13,05,05,-8.90
2024,01,13,05,06,-8.80
2024,01,13,05,07,-8.80
2024,01,13,05,08,-8.80
2024,01,13,05,09,-8.80
2024,01,13,05,10,-8.80
2024,01,13,05,11,-8.80
2024,01,13,05,12,-8.80
2024,01,13,05,13,-8.80
2024,01,13,05,14,-8.80
2024,01,13,05,15,-8.90
2024,01,13,05,16,-8.90
2024,01,13,05,17,-8.90
2024,01,13,05,18,-8.90
2024,01,13,05,19,-8.90
2024,01,13,05,20,-8.90
2024,01,13,05,21,-8.90
2024,01,13,05,22,-8.90
2024,01,13,05,23,-8.90
2024,01,13,05,24,-8.90
2024,01,13,05,25,-8.90
2024,01,13,05,26,-8.90
2024,01,13,05,27,-8.90
2024,01,13,05,28,-8.90
2024,01,13,05,29,-8.90
2024,01,13,05,30,-8.90
2024,01,13,05,31,-8.90
2024,01,13,05,32,-8.90
2024,01,13,05,33,-8.90
2024,01,13,05,34,-8.80
2024,01,13,05,35,-8.80
2024,01,13,05,36,-8.80
2024,01,13,05,37,-8.80
2024,01,13,05,38,-8.80
2024,01,13,05,39,-8.80
2024,01,13,05,40,-8.80
2024,01,13,05,41,-8.80
2024,01,13,05,42,-8.80
2024,01,13,05,43,-8.80
2024,01,13,05,44,-8.80
2024,01,13,05,45,-8.80
2024,01,13,05,46,-8.80
2024,01,13,05,47,-8.80
2024,01,13,05,48,-8.80
2024,01,13,05,49,-8.80
2024,01,13,05,50,-8.80
2024,01,13,05,51,-8.80
2024,01,13,05,52,-8.80
2024,01,13,05,53,-8.80
2024,01,13,05,54,-8.70
2024,01,13,05,55,-8.80
2024,01,13,05,56,-8.80
2024,01,13,05,57,-8.80
2024,01,13,05,58,-8.80
2024,01,13,05,59,-8.80
2024,01,13,06,00,-8.80
2024,01,13,06,01,-8.80
2024,01,13,06,02,-8.80
2024,01,13,06,03,-8.80
2024,01,13,06,04,-8.80
2024,01,13,06,05,-8.80
2024,01,13,06,06,-8.80
2024,01,13,08,38,-7.90
2024,01,13,08,39,-7.90
2024,01,13,08,40,-7.90
2024,01,13,08,41,-7.90
2024,01,13,08,42,-7.90
2024,01,13,08,43,-7.90
2024,01,13,08,44,-7.90
2024,01,13,08,45,-7.90
2024,01,13,08,46,-7.90
2024,01,13,08,47,-7.90
2024,01,13,08,48,-7.90
2024,01,13,08,49,-7.90
2024,01,13,08,50,-7.90
2024,01,13,08,51,-7.90
2024,01,13,08,52,-7.90
2024,01,13,08,53,-7.90
2024,01,13,08,54,-7.90
2024,01,13,08,55,-7.90
2024,01,13,08,56,-7.90
2024,01,13,08,57,-7.90
2024,01,13,08,58,-7.80
2024,01,13,08,59,-7.80
2024,01,13,09,00,-7.80
2024,01,13,09,01,-7.80
2024,01,13,09,02,-7.80
2024,01,13,09,03,-7.80
2024,01,13,09,04,-7.80
2024,01,13,09,05,-7.80
2024,01,13,09,06,-7.70
2024,01,13,09,07,-7.70
2024,01,13,09,08,-7.70
2024,01,13,09,09,-7.70
2024,01,13,09,10,-7.70
2024,01,13,09,11,-7.70
2024,01,13,09,12,-7.70
2024,01,13,09,13,-7.60
2024,01,13,09,14,-7.60
2024,01,13,09,15,-7.60
2024,01,13,09,16,-7.60
2024,01,13,09,17,-7.60
2024,01,13,09,18,-7.50
2024,01,13,09,19,-7.50
2024,01,13,09,20,-7.50
2024,01,13,09,21,-7.50
2024,01,13,09,22,-7.40
2024,01,13,09,23,-7.40
2024,01,13,09,24,-7.40
2024,01,13,09,25,-7.40
2024,01,13,09,26,-7.40
2024,01,13,09,27,-7.40
2024,01,13,09,28,-7.40
2024,01,13,09,29,-7.30
2024,01,13,09,30,-7.30
2024,01,13,09,31,-7.30
2024,01,13,09,32,-7.30
2024,01,13,09,33,-7.30
2024,01,13,09,34,-7.30
2024,01,13,09,35,-7.30
2024,01,13,09,36,-7.30
2024,01,13,09,37,-7.30
2024,01,13,09,38,-7.30
2024,01,13,09,39,-7.20
2024,01,13,09,40,-7.20
2024,01,13,09,41,-7.20
2024,01,13,09,42,-7.20
2024,01,13,09,43,-7.20
2024,01,13,09,44,-7.20
2024,01,13,09,45,-7.20
2024,01,13,09,46,-7.20
2024,01,13,09,47,-7.10
2024,01,13,09,48,-7.10
2024,01,13,09,49,-7.10
2024,01,13,09,50,-7.10
2024,01,13,09,51,-7.10
2024,01,13,09,52,-7.00
2024,01,13,09,53,-7.00
2024,01,13,09,54,-7.00
2024,01,13,09,55,-7.00
2024,01,13,09,56,-6.90
2024,01,13,09,57,-6.90
2024,01,13,09,58,-6.90
2024,01,13,09,59,-6.90
2024,01,13,10,00,-6.90
2024,01,13,10,01,-6.90
2024,01,13,10,02,-6.90
2024,01,13,10,03,-6.90
2024,01,13,10,04,-6.80
2024,01,13,10,05,-6.80
2024,01,13,10,06,-6.80
2024,01,13,10,07,-6.80
2024,01,13,10,08,-6.80
2024,01,13,10,09,-6.80
2024,01,13,10,10,-6.70
2024,01,13,10,11,-6.70
2024,01,13,10,12,-6.70
2024,01,13,10,13,-6.70
2024,01,13,10,14,-6.60
2024,01,13,10,15,-6.60
2024,01,13,10,16,-6.60
2024,01,13,10,17,-6.60
2024,01,13,10,18,-6.60
2024,01,13,10,19,-6.60
2024,01,13,10,20,-6.60
2024,01,13,10,21,-6.50
2024,01,13,10,22,-6.50
2024,01,13,10,23,-6.50
2024,01,13,10,24,-6.50
2024,01,13,10,25,-6.40
2024,01,13,10,26,-6.40
2024,01,13,10,27,-6.50
2024,01,13,10,28,-6.50
2024,01,13,10,29,-6.50
2024,01,13,10,30,-6.50
2024,01,13,10,31,-6.50
2024,01,13,10,32,-6.40
2024,01,13,10,33,-6.40
2024,01,13,10,34,-6.40
2024,01,13,10,35,-6.40
2024,01,13,10,36,-6.40
2024,01,13,10,37,-6.40
2024,01,13,10,38,-6.40
2024,01,13,10,39,-6.40
2024,01,13,10,40,-6.40
2024,01,13,10,41,-6.40
2024,01,13,10,42,-6.40
2024,01,13,10,43,-6.50
2024,01,13,10,44,-6.50
2024,01,13,10,45,-6.50
2024,01,13,10,46,-6.50
2024,01,13,10,47,-6.50
2024,01,13,10,48,-6.50
2024,01,13,10,49,-6.50
2024,01,13,10,50,-6.50
2024,01,13,10,51,-6.40
2024,01,13,10,52,-6.40
2024,01,13,10,53,-6.40
2024,01,13,10,54,-6.40
2024,01,13,10,55,-6.30
2024,01,13,10,56,-6.30
2024,01,13,10,57,-6.30
2024,01,13,10,58,-6.20
2024,01,13,10,59,-6.20
2024,01,13,11,00,-6.20
2024,01,13,11,01,-6.10
2024,01,13,11,02,-6.10
2024,01,13,11,03,-6.10
2024,01,13,11,04,-6.10
2024,01,13,11,05,-6.00
2024,01,13,11,06,-6.00
2024,01,13,11,07,-6.00
2024,01,13,11,08,-5.90
2024,01,13,11,09,-5.90
2024,01,13,11,10,-5.90
2024,01,13,11,11,-5.90
2024,01,13,11,12,-5.90
2024,01,13,11,13,-5.90
2024,01,13,11,14,-5.90
2024,01,13,11,15,-5.90
2024,01,13,11,16,-6.00
2024,01,13,11,17,-6.00
2024,01,13,11,18,-6.00
2024,01,13,11,19,-5.90
2024,01,13,11,20,-5.90
2024,01,13,11,21,-5.90
2024,01,13,11,22,-5.90
2024,01,13,11,23,-5.90
2024,01,13,11,24,-5.90
2024,01,13,11,25,-5.90
2024,01,13,11,26,-5.90
2024,01,13,11,27,-5.90
2024,01,13,11,28,-5.90
2024,01,13,11,29,-5.90
2024,01,13,11,30,-5.90
2024,01,13,11,31,-6.00
2024,01,13,11,32,-6.00
2024,01,13,11,33,-6.00
2024,01,13,11,34,-6.00
2024,01,13,11,35,-6.00
2024,01,13,11,36,-6.00
2024,01,13,11,37,-6.00
2024,01,13,11,38,-6.00
2024,01,13,11,39,-6.00
2024,01,13,11,40,-6.00
2024,01,13,11,41,-6.00
2024,01,13,11,42,-6.00
2024,01,13,11,43,-6.00
2024,01,13,11,44,-6.00
2024,01,13,11,45,-6.00
2024,01,13,11,46,-6.00
2024,01,13,11,47,-5.90
2024,01,13,11,48,-5.90
2024,01,13,11,49,-5.90
2024,01,13,11,50,-5.90
2024,01,13,11,51,-5.90
2024,01,13,11,52,-5.90
2024,01,13,11,53,-5.90
2024,01,13,11,54,-5.90
2024,01,13,11,55,-5.90
2024,01,13,11,56,-5.90
2024,01,13,11,57,-5.80
2024,01,13,11,58,-5.80
2024,01,13,11,59,-5.80
2024,01,13,12,00,-5.80
2024,01,13,12,01,-5.70
2024,01,13,12,02,-5.70
2024,01,13,12,03,-5.70
2024,01,13,12,04,-5.70
2024,01,13,12,05,-5.70
2024,01,13,12,06,-5.60
2024,01,13,12,07,-5.60
2024,01,13,12,08,-5.60
2024,01,13,12,09,-5.60
2024,01,13,12,10,-5.60
2024,01,13,12,11,-5.50
2024,01,13,12,12,-5.50
2024,01,13,12,13,-5.40
2024,01,13,12,14,-5.40
2024,01,13,12,15,-5.40
2024,01,13,12,16,-5.40
2024,01,13,12,17,-5.30
2024,01,13,12,18,-5.30
2024,01,13,12,19,-5.30
2024,01,13,12,20,-5.30
2024,01,13,12,21,-5.20
2024,01,13,12,22,-5.20
2024,01,13,12,23,-5.20
2024,01,13,12,24,-5.20
2024,01,13,12,25,-5.20
2024,01,13,12,26,-5.20
2024,01,13,12,27,-5.30
2024,01,13,12,28,-5.30
2024,01,13,12,29,-5.30
2024,01,13,12,30,-5.30
2024,01,13,12,31,-5.30
2024,01,13,12,32,-5.30
2024,01,13,12,33,-5.20
2024,01,13,12,34,-5.20
2024,01,13,12,35,-5.20
2024,01,13,12,36,-5.20
2024,01,13,12,37,-5.20
2024,01,13,12,38,-5.20
2024,01,13,12,39,-5.20
2024,01,13,12,40,-5.20
2024,01,13,12,41,-5.20
2024,01,13,12,42,-5.20
2024,01,13,12,43,-5.20
2024,01,13,12,44,-5.20
2024,01,13,12,45,-5.20
2024,01,13,12,46,-5.20
2024,01,13,12,47,-5.10
2024,01,13,12,48,-5.10
2024,01,13,12,49,-5.00
2024,01,13,12,50,-5.00
2024,01,13,12,51,-5.00
2024,01,13,12,52,-4.90
2024,01,13,12,53,-4.90
2024,01,13,12,54,-4.90
2024,01,13,12,55,-4.80
2024,01,13,12,56,-4.80
2024,01,13,12,57,-4.80
2024,01,13,12,58,-4.80
2024,01,13,12,59,-4.80
2024,01,13,13,00,-4.80
2024,01,13,13,01,-4.70
2024,01,13,13,02,-4.70
2024,01,13,13,03,-4.70
2024,01,13,13,04,-4.70
2024,01,13,13,05,-4.70
2024,01,13,13,06,-4.70
2024,01,13,13,07,-4.60
2024,01,13,13,08,-4.60
2024,01,13,13,09,-4.60
2024,01,13,13,10,-4.50
2024,01,13,13,11,-4.40
2024,01,13,13,12,-4.40
2024,01,13,13,13,-4.40
2024,01,13,13,14,-4.40
2024,01,13,13,15,-4.40
2024,01,13,13,16,-4.30
2024,01,13,13,17,-4.40
2024,01,13,13,18,-4.40
2024,01,13,13,19,-4.40
2024,01,13,13,20,-4.40
2024,01,13,13,21,-4.40
2024,01,13,13,22,-4.40
2024,01,13,13,23,-4.50
2024,01,13,13,24,-4.50
2024,01,13,13,25,-4.50
2024,01,13,13,26,-4.50
2024,01,13,13,27,-4.50
2024,01,13,13,28,-4.50
2024,01,13,13,29,-4.50
2024,01,13,13,30,-4.60
2024,01,13,13,31,-4.60
2024,01,13,13,32,-4.60
2024,01,13,13,33,-4.60
2024,01,13,13,34,-4.60
2024,01,13,13,35,-4.70
2024,01,13,13,36,-4.60
2024,01,13,13,37,-4.60
2024,01,13,13,38,-4.60
2024,01,13,13,39,-4.60
2024,01,13,13,40,-4.60
2024,01,13,13,41,-4.60
2024,01,13,13,42,-4.60
2024,01,13,13,43,-4.50
2024,01,13,13,44,-4.50
2024,01,13,13,45,-4.40
2024,01,13,13,46,-4.40
2024,01,13,13,47,-4.30
2024,01,13,13,48,-4.30
2024,01,13,13,49,-4.30
2024,01,13,13,50,-4.30
2024,01,13,13,51,-4.30
2024,01,13,13,52,-4.20
2024,01,13,13,53,-4.20
2024,01,13,13,54,-4.20
2024,01,13,13,55,-4.20
2024,01,13,13,56,-4.20
2024,01,13,13,57,-4.20
2024,01,13,13,58,-4.30
2024,01,13,13,59,-4.30
2024,01,13,14,00,-4.30
2024,01,13,14,01,-4.30
2024,01,13,14,02,-4.30
2024,01,13,14,03,-4.30
2024,01,13,14,04,-4.40
2024,01,13,14,05,-4.40
2024,01,13,14,06,-4.40
2024,01,13,14,07,-4.40
2024,01,13,14,08,-4.30
2024,01,13,14,09,-4.30
2024,01,13,14,10,-4.30
2024,01,13,14,11,-4.30
2024,01,13,14,12,-4.30
2024,01,13,14,13,-4.30
2024,01,13,14,14,-4.30
2024,01,13,14,15,-4.30
2024,01,13,14,16,-4.30
2024,01,13,14,17,-4.30
2024,01,13,14,18,-4.40
2024,01,13,14,19,-4.30
2024,01,13,14,20,-4.30
2024,01,13,14,21,-4.30
2024,01,13,14,22,-4.30
2024,01,13,14,23,-4.30
2024,01,13,14,24,-4.30
2024,01,13,14,25,-4.30
2024,01,13,14,26,-4.30
2024,01,13,14,27,-4.30
2024,01,13,14,28,-4.30
2024,01,13,14,29,-4.30
2024,01,13,14,30,-4.30
2024,01,13,14,31,-4.30
2024,01,13,14,32,-4.20
2024,01,13,14,33,-4.20
2024,01,13,14,34,-4.20
2024,01,13,14,35,-4.20
2024,01,13,14,36,-4.20
2024,01,13,14,37,-4.20
2024,01,13,14,38,-4.20
2024,01,13,14,39,-4.20
2024,01,13,14,40,-4.20
2024,01,13,14,41,-4.20
2024,01,13,14,42,-4.20
2024,01,13,14,43,-4.20
2024,01,13,14,44,-4.30
2024,01,13,14,45,-4.20
2024,01,13,14,46,-4.20
2024,01,13,14,47,-4.20
2024,01,13,14,48,-4.20
2024,01,13,14,49,-4.20
2024,01,13,14,50,-4.20
2024,01,13,14,51,-4.20
2024,01,13,14,52,-4.20
2024,01,13,14,53,-4.20
2024,01,13,14,54,-4.20
2024,01,13,14,55,-4.20
2024,01,13,14,56,-4.20
2024,01,13,14,57,-4.20
2024,01,13,14,58,-4.20
2024,01,13,14,59,-4.20
2024,01,13,15,00,-4.20
2024,01,13,15,01,-4.20
2024,01,13,15,02,-4.20
2024,01,13,15,03,-4.10
2024,01,13,15,04,-4.10
2024,01,13,15,05,-4.10
2024,01,13,15,06,-4.10
2024,01,13,15,07,-4.10
2024,01,13,15,08,-4.00
2024,01,13,15,09,-4.00
2024,01,13,15,10,-4.00
2024,01,13,15,11,-4.00
2024,01,13,15,12,-4.00
2024,01,13,15,13,-4.10
2024,01,13,15,14,-4.10
2024,01,13,15,15,-4.10
2024,01,13,15,16,-4.10
2024,01,13,15,17,-4.10
2024,01,13,15,18,-4.10
2024,01,13,15,19,-4.10
2024,01,13,15,20,-4.10
2024,01,13,15,21,-4.00
2024,01,13,15,22,-4.00
2024,01,13,15,23,-4.00
2024,01,13,15,24,-4.00
2024,01,13,15,25,-4.00
2024,01,13,15,26,-4.10
2024,01,13,15,27,-4.10
2024,01,13,15,28,-4.10
2024,01,13,15,29,-4.10
2024,01,13,15,30,-4.10
2024,01,13,15,31,-4.10
2024,01,13,15,32,-4.10
2024,01,13,15,33,-4.10
2024,01,13,15,34,-4.10
2024,01,13,15,35,-4.10
2024,01,13,15,36,-4.10
2024,01,13,15,37,-4.10
2024,01,13,15,38,-4.10
2024,01,13,15,39,-4.10
2024,01,13,15,40,-4.10
2024,01,13,15,41,-4.10
2024,01,13,15,42,-4.20
2024,01,13,15,43,-4.20
2024,01,13,15,44,-4.20
2024,01,13,15,45,-4.20
2024,01,13,15,46,-4.20
2024,01,13,15,47,-4.20
2024,01,13,15,48,-4.20
2024,01,13,15,49,-4.20
2024,01,13,15,50,-4.30
2024,01,13,15,51,-4.30
2024,01,13,15,52,-4.30
2024,01,13,15,53,-4.30
2024,01,13,15,54,-4.30
2024,01,13,15,55,-4.30
2024,01,13,15,56,-4.20
2024,01,13,15,57,-4.20
2024,01,13,15,58,-4.20
2024,01,13,15,59,-4.20
2024,01,13,16,00,-4.20
2024,01,13,16,01,-4.20
2024,01,13,16,02,-4.20
2024,01,13,16,03,-4.20
2024,01,13,16,04,-4.20
2024,01,13,16,05,-4.20
2024,01,13,16,06,-4.20
2024,01,13,16,07,-4.20
2024,01,13,16,08,-4.20
2024,01,13,16,09,-4.20
2024,01,13,16,10,-4.20
2024,01,13,16,11,-4.20
2024,01,13,16,12,-4.20
2024,01,13,16,13,-4.20
2024,01,13,16,14,-4.20
2024,01,13,16,15,-4.20
2024,01,13,16,16,-4.20
2024,01,13,16,17,-4.20
2024,01,13,16,18,-4.20
2024,01,13,16,19,-4.20
2024,01,13,16,20,-4.20
2024,01,13,16,21,-4.20
2024,01,13,16,22,-4.20
2024,01,13,16,23,-4.20
2024,01,13,16,24,-4.20
2024,01,13,16,25,-4.20
2024,01,13,16,26,-4.20
2024,01,13,16,27,-4.20
2024,01,13,16,28,-4.20
2024,01,13,16,29,-4.20
2024,01,13,16,30,-4.20
2024,01,13,16,31,-4.20
2024,01,13,16,32,-4.20
2024,01,13,16,33,-4.20
2024,01,13,16,34,-4.30
2024,01,13,16,35,-4.30
2024,01,13,16,36,-4.30
2024,01,13,16,37,-4.30
2024,01,13,16,38,-4.30
2024,01,13,16,39,-4.30
2024,01,13,16,40,-4.30
2024,01,13,16,41,-4.30
2024,01,13,16,42,-4.30
2024,01,13,16,43,-4.30
2024,01,13,16,44,-4.30
2024,01,13,16,45,-4.30
2024,01,13,16,46,-4.30
2024,01,13,16,47,-4.30
2024,01,13,16,48,-4.30
2024,01,13,16,49,-4.30
2024,01,13,16,50,-4.30
2024,01,13,16,51,-4.30
2024,01,13,16,52,-4.30
2024,01,13,16,53,-4.30
2024,01,13,16,54,-4.30
2024,01,13,16,55,-4.30
2024,01,13,16,56,-4.30
2024,01,13,16,57,-4.30
2024,01,13,16,58,-4.30
2024,01,13,16,59,-4.30
2024,01,13,17,00,-4.30
2024,01,13,17,01,-4.30
2024,01,13,17,02,-4.30
2024,01,13,17,03,-4.30
2024,01,13,17,04,-4.30
2024,01,13,17,05,-4.40
2024,01,13,17,06,-4.40
2024,01,13,17,07,-4.40
2024,01,13,17,08,-4.40
2024,01,13,17,09,-4.40
2024,01,13,17,10,-4.40
2024,01,13,17,11,-4.40
2024,01,13,17,12,-4.40
2024,01,13,17,13,-4.40
2024,01,13,17,14,-4.40
2024,01,13,17,15,-4.40
2024,01,13,17,16,-4.40
2024,01,13,17,17,-4.40
2024,01,13,17,18,-4.40
2024,01,13,17,19,-4.40
2024,01,13,17,20,-4.50
2024,01,13,17,21,-4.40
2024,01,13,17,22,-4.40
2024,01,13,17,23,-4.40
2024,01,13,17,24,-4.40
2024,01,13,17,25,-4.40
2024,01,13,17,26,-4.40
2024,01,13,17,27,-4.40
2024,01,13,17,28,-4.40
2024,01,13,17,29,-4.40
2024,01,13,17,30,-4.40
2024,01,13,17,31,-4.40
2024,01,13,17,32,-4.40
2024,01,13,17,33,-4.40
2024,01,13,17,34,-4.40
2024,01,13,17,35,-4.40
2024,01,13,17,36,-4.40
2024,01,13,17,37,-4.40
2024,01,13,17,38,-4.40
2024,01,13,17,39,-4.40
2024,01,13,17,40,-4.40
2024,01,13,17,41,-4.50
2024,01,13,17,42,-4.50
2024,01,13,17,43,-4.50
2024,01,13,17,44,-4.50
2024,01,13,17,45,-4.50
2024,01,13,17,46,-4.50
2024,01,13,17,47,-4.50
2024,01,13,17,48,-4.50
2024,01,13,17,49,-4.50
2024,01,13,17,50,-4.50
2024,01,13,17,51,-4.50
2024,01,13,17,52,-4.50
2024,01,13,17,53,-4.50
2024,01,13,17,54,-4.50
2024,01,13,17,55,-4.60
2024,01,13,17,56,-4.60
2024,01,13,17,57,-4.60
2024,01,13,17,58,-4.60
2024,01,13,17,59,-4.60
2024,01,13,18,00,-4.60
2024,01,13,18,01,-4.60
2024,01,13,18,02,-4.60
2024,01,13,18,03,-4.60
2024,01,13,18,04,-4.60
2024,01,13,18,05,-4.60
2024,01,13,18,06,-4.60
2024,01,13,18,07,-4.60
2024,01,13,18,08,-4.60
2024,01,13,18,09,-4.60
2024,01,13,18,10,-4.60
2024,01,13,18,11,-4.50
2024,01,13,18,12,-4.50
2024,01,13,18,13,-4.50
2024,01,13,18,14,-4.50
2024,01,13,18,15,-4.50
2024,01,13,18,16,-4.50
2024,01,13,18,17,-4.50
2024,01,13,18,18,-4.40
2024,01,13,18,19,-4.40
2024,01,13,18,20,-4.40
2024,01,13,18,21,-4.40
2024,01,13,18,22,-4.40
2024,01,13,18,23,-4.40
2024,01,13,18,24,-4.30
2024,01,13,18,25,-4.30
2024,01,13,18,26,-4.30
2024,01,13,18,27,-4.30
2024,01,13,18,28,-4.30
2024,01,13,18,29,-4.30
2024,01,13,18,30,-4.30
2024,01,13,18,31,-4.30
2024,01,13,18,32,-4.30
2024,01,13,18,33,-4.30
2024,01,13,18,34,-4.30
2024,01,13,18,35,-4.30
2024,01,13,18,36,-4.30
2024,01,13,18,37,-4.30
2024,01,13,18,38,-4.30
2024,01,13,18,39,-4.20
2024,01,13,18,40,-4.20
2024,01,13,18,41,-4.20
2024,01,13,18,42,-4.20
2024,01,13,18,43,-4.20
2024,01,13,18,44,-4.20
2024,01,13,18,45,-4.20
2024,01,13,18,46,-4.20
2024,01,13,18,47,-4.20
2024,01,13,18,48,-4.20
2024,01,13,18,49,-4.20
2024,01,13,18,50,-4.20
2024,01,13,18,51,-4.20
2024,01,13,18,52,-4.20
2024,01,13,18,53,-4.20
2024,01,13,18,54,-4.20
2024,01,13,18,55,-4.20
2024,01,13,18,56,-4.20
2024,01,13,18,57,-4.20
2024,01,13,18,58,-4.20
2024,01,13,18,59,-4.20
2024,01,13,19,00,-4.10
2024,01,13,19,01,-4.10
2024,01,13,19,02,-4.20
2024,01,13,19,03,-4.10
2024,01,13,19,04,-4.10
2024,01,13,19,05,-4.10
2024,01,13,19,06,-4.10
2024,01,13,19,07,-4.10
2024,01,13,19,08,-4.10
2024,01,13,19,09,-4.10
2024,01,13,19,10,-4.10
2024,01,13,19,11,-4.00
2024,01,13,19,12,-4.00
2024,01,13,19,13,-4.00
2024,01,13,19,14,-4.00
2024,01,13,19,15,-4.00
2024,01,13,19,16,-4.00
2024,01,13,19,17,-4.00
2024,01,13,19,18,-4.00
2024,01,13,19,19,-4.00
2024,01,13,19,20,-4.00
2024,01,13,19,21,-3.90
2024,01,13,19,22,-3.90
2024,01,13,19,23,-3.90
2024,01,13,19,24,-3.90
2024,01,13,19,25,-3.90
2024,01,13,19,26,-3.90
2024,01,13,19,27,-3.90
2024,01,13,19,28,-3.90
2024,01,13,19,29,-3.90
2024,01,13,19,30,-3.90
2024,01,13,19,31,-3.90
2024,01,13,19,32,-3.90
2024,01,13,19,33,-3.80
2024,01,13,19,34,-3.80
2024,01,13,19,35,-3.80
2024,01,13,19,36,-3.80
2024,01,13,19,37,-3.80
2024,01,13,19,38,-3.80
2024,01,13,19,39,-3.80
2024,01,13,19,40,-3.70